Xin Dan Dong — BPBY — position and weather

sailwx.info

Track history (hours):
 
Tides and Currents Weather Stations Pressure Air Temp Water Temp Dewpoint Dewpoint Depression Visibility Wind Speed Wind Dir Waves Ship Positions

Xin Dan Dong

Last reported at 2014-Nov-26 14:33 UTC. Time now 2014-Nov-26 14:48 UTC.
Position N 38°18' E 121°28'.

Length 263 m; draft 12.8 m.

Type: Cargo ship. MMSI: 413153000.

Date/timePositionNaut miles runAvg speedWind from/ knotsBaromVisibWave heightAir tempDewpointWater temp
2014-Nov-26 14:33N 38°18' E 121°28'3912.3
2014-Nov-26 11:23N 38°41' E 120°48'11011.2
2014-Nov-26 01:34N 40°18' E 121°55'8 8.3
2014-Nov-26 00:33N 40°16' E 122°06'0 0.0
2014-Nov-25 23:32N 40°16' E 122°06'0 0.0
2014-Nov-25 22:24N 40°16' E 122°06'0 0.0
2014-Nov-25 21:30N 40°16' E 122°06'0 0.0
2014-Nov-25 20:24N 40°16' E 122°06'0 0.0
2014-Nov-25 19:30N 40°16' E 122°06'0 0.0
2014-Nov-25 18:12N 40°16' E 122°06'0 0.0
2014-Nov-25 17:24N 40°16' E 122°06'0 0.0
2014-Nov-25 16:30N 40°16' E 122°06'0 0.0
2014-Nov-25 15:30N 40°16' E 122°06'0 0.0
2014-Nov-25 14:18N 40°16' E 122°06'0 0.0
2014-Nov-25 13:31N 40°16' E 122°06'0 0.0
2014-Nov-25 12:31N 40°16' E 122°06'0 0.0
2014-Nov-25 11:31N 40°16' E 122°06'0 0.0
2014-Nov-25 10:25N 40°16' E 122°06'0 0.0
2014-Nov-25 09:31N 40°16' E 122°06'0 0.0
2014-Nov-25 08:31N 40°16' E 122°06'0 0.0
2014-Nov-25 07:19N 40°16' E 122°06'0 0.0
2014-Nov-25 06:31N 40°16' E 122°06'0 0.0
2014-Nov-25 05:30N 40°16' E 122°06'0 0.0
2014-Nov-25 04:19N 40°16' E 122°06'0 0.0
2014-Nov-25 03:31N 40°16' E 122°06'0 0.0
2014-Nov-25 02:17N 40°16' E 122°06'0 0.0
2014-Nov-25 01:29N 40°16' E 122°06'0 0.0
2014-Nov-25 00:30N 40°16' E 122°06'0 0.0
2014-Nov-24 23:12N 40°16' E 122°06'0 0.0
2014-Nov-24 22:30N 40°16' E 122°06'0 0.0
2014-Nov-24 21:30N 40°16' E 122°06'0 0.0
2014-Nov-24 20:30N 40°16' E 122°06'0 0.1
2014-Nov-24 19:33N 40°16' E 122°06'9 8.9
2014-Nov-24 18:32N 40°18' E 121°54'6 0.4
2014-Nov-24 03:03N 40°18' E 121°47'11710.2
2014-Nov-23 15:33N 38°23' E 121°22'1413.9
2014-Nov-23 14:32N 38°17' E 121°38'1913.8
2014-Nov-23 13:08N 38°06' E 121°58'1013.7
2014-Nov-23 12:25N 38°02' E 122°09'1213.8
2014-Nov-23 11:32N 37°55' E 122°23'1714.2
2014-Nov-23 10:20N 37°46' E 122°41'1214.7
2014-Nov-23 09:32N 37°37' E 122°50'1414.5
2014-Nov-23 08:33N 37°25' E 122°60'1514.3
2014-Nov-23 07:33N 37°12' E 123°09'1312.6
2014-Nov-23 06:30N 36°60' E 123°13'38113.2
2014-Nov-22 01:33N 30°38' E 123°14'36812.6
2014-Nov-20 20:27N 25°13' E 119°59'1112.4
2014-Nov-20 19:33N 25°06' E 119°50'3912.7
2014-Nov-20 16:26N 24°38' E 119°19'1011.2
2014-Nov-20 15:33N 24°31' E 119°11'5011.5
2014-Nov-20 11:12N 23°57' E 118°30'812.3
2014-Nov-20 10:31N 23°53' E 118°23'3912.8
2014-Nov-20 07:30N 23°25' E 117°53'22811.4
2014-Nov-19 11:31N 21°58' E 114°04'1111.8
2014-Nov-19 10:33N 22°02' E 113°53'1212.1
2014-Nov-19 09:33N 22°13' E 113°49'1414.0
2014-Nov-19 08:33N 22°27' E 113°45'13 0.6
2014-Nov-18 10:24N 22°39' E 113°41'8 9.3
2014-Nov-18 09:33N 22°32' E 113°44'1514.6
2014-Nov-18 08:33N 22°18' E 113°48'1312.9
2014-Nov-18 07:33N 22°05' E 113°51'13 9.8
2014-Nov-18 06:14N 21°59' E 114°03'30513.4
2014-Nov-17 07:32N 24°20' E 118°57'1913.7
2014-Nov-17 06:08N 24°33' E 119°12'1113.8
2014-Nov-17 05:19N 24°41' E 119°21'  
Track history (hours):
 
Tides and Currents Weather Stations Pressure Air Temp Water Temp Dewpoint Dewpoint Depression Visibility Wind Speed Wind Dir Waves Ship Positions

Xin Dan Dong

Last reported at 2014-Nov-26 14:33 UTC. Time now 2014-Nov-26 14:48 UTC.
Position N 38°18' E 121°28'.

Length 263 m; draft 12.8 m.

Type: Cargo ship. MMSI: 413153000.

Date/timePositionNaut miles runAvg speedWind from/ knotsBaromVisibWave heightAir tempDewpointWater temp
2014-Nov-26 14:33N 38°18' E 121°28'3912.3
2014-Nov-26 11:23N 38°41' E 120°48'11011.2
2014-Nov-26 01:34N 40°18' E 121°55'8 8.3
2014-Nov-26 00:33N 40°16' E 122°06'0 0.0
2014-Nov-25 23:32N 40°16' E 122°06'0 0.0
2014-Nov-25 22:24N 40°16' E 122°06'0 0.0
2014-Nov-25 21:30N 40°16' E 122°06'0 0.0
2014-Nov-25 20:24N 40°16' E 122°06'0 0.0
2014-Nov-25 19:30N 40°16' E 122°06'0 0.0
2014-Nov-25 18:12N 40°16' E 122°06'0 0.0
2014-Nov-25 17:24N 40°16' E 122°06'0 0.0
2014-Nov-25 16:30N 40°16' E 122°06'0 0.0
2014-Nov-25 15:30N 40°16' E 122°06'0 0.0
2014-Nov-25 14:18N 40°16' E 122°06'0 0.0
2014-Nov-25 13:31N 40°16' E 122°06'0 0.0
2014-Nov-25 12:31N 40°16' E 122°06'0 0.0
2014-Nov-25 11:31N 40°16' E 122°06'0 0.0
2014-Nov-25 10:25N 40°16' E 122°06'0 0.0
2014-Nov-25 09:31N 40°16' E 122°06'0 0.0
2014-Nov-25 08:31N 40°16' E 122°06'0 0.0
2014-Nov-25 07:19N 40°16' E 122°06'0 0.0
2014-Nov-25 06:31N 40°16' E 122°06'0 0.0
2014-Nov-25 05:30N 40°16' E 122°06'0 0.0
2014-Nov-25 04:19N 40°16' E 122°06'0 0.0
2014-Nov-25 03:31N 40°16' E 122°06'0 0.0
2014-Nov-25 02:17N 40°16' E 122°06'0 0.0
2014-Nov-25 01:29N 40°16' E 122°06'0 0.0
2014-Nov-25 00:30N 40°16' E 122°06'0 0.0
2014-Nov-24 23:12N 40°16' E 122°06'0 0.0
2014-Nov-24 22:30N 40°16' E 122°06'0 0.0
2014-Nov-24 21:30N 40°16' E 122°06'0 0.0
2014-Nov-24 20:30N 40°16' E 122°06'0 0.1
2014-Nov-24 19:33N 40°16' E 122°06'9 8.9
2014-Nov-24 18:32N 40°18' E 121°54'6 0.4
2014-Nov-24 03:03N 40°18' E 121°47'11710.2
2014-Nov-23 15:33N 38°23' E 121°22'1413.9
2014-Nov-23 14:32N 38°17' E 121°38'1913.8
2014-Nov-23 13:08N 38°06' E 121°58'1013.7
2014-Nov-23 12:25N 38°02' E 122°09'1213.8
2014-Nov-23 11:32N 37°55' E 122°23'1714.2
2014-Nov-23 10:20N 37°46' E 122°41'1214.7
2014-Nov-23 09:32N 37°37' E 122°50'1414.5
2014-Nov-23 08:33N 37°25' E 122°60'1514.3
2014-Nov-23 07:33N 37°12' E 123°09'1312.6
2014-Nov-23 06:30N 36°60' E 123°13'38113.2
2014-Nov-22 01:33N 30°38' E 123°14'36812.6
2014-Nov-20 20:27N 25°13' E 119°59'1112.4
2014-Nov-20 19:33N 25°06' E 119°50'3912.7
2014-Nov-20 16:26N 24°38' E 119°19'1011.2
2014-Nov-20 15:33N 24°31' E 119°11'5011.5
2014-Nov-20 11:12N 23°57' E 118°30'812.3
2014-Nov-20 10:31N 23°53' E 118°23'3912.8
2014-Nov-20 07:30N 23°25' E 117°53'22811.4
2014-Nov-19 11:31N 21°58' E 114°04'1111.8
2014-Nov-19 10:33N 22°02' E 113°53'1212.1
2014-Nov-19 09:33N 22°13' E 113°49'1414.0
2014-Nov-19 08:33N 22°27' E 113°45'13 0.6
2014-Nov-18 10:24N 22°39' E 113°41'8 9.3
2014-Nov-18 09:33N 22°32' E 113°44'1514.6
2014-Nov-18 08:33N 22°18' E 113°48'1312.9
2014-Nov-18 07:33N 22°05' E 113°51'13 9.8
2014-Nov-18 06:14N 21°59' E 114°03'30513.4
2014-Nov-17 07:32N 24°20' E 118°57'1913.7
2014-Nov-17 06:08N 24°33' E 119°12'1113.8
2014-Nov-17 05:19N 24°41' E 119°21'  

Dump ship's entire track history